Wetbulb
37.91 37.88 37.79 37.74 37.78 37.90 38.21 38.36 38.38 38.66 39.05 39.33 39.41 39.57 39.92 40.08 40.03 40.35 40.64 40.79 40.63 40.66 40.90 41.35 41.93 42.54 43.04 43.63 43.96 44.47 45.02 45.48 46.02 46.28 46.67 47.54 48.88 50.17 51.46 52.77 54.13 55.30 56.51 57.83 59.40 60.47 61.24 61.70 61.84 61.76 61.76 61.63 62.18 62.53 62.88 63.08 62.85 62.70 62.41 62.21 62.23 62.25 62.33 62.17 61.74 61.58 61.65 61.81 62.34
37.08 37.14 37.22 36.82 36.90 37.28 37.72 37.79 37.91 38.23 38.66 39.30 39.33 39.53 39.76 39.88 39.87 40.03 40.27 40.42 40.58 40.82 40.98 41.27 41.67 42.00 42.33 42.67 43.00 43.42 43.80 44.13 44.68 45.14 45.69 46.61 47.91 49.30 50.75 51.80 52.83 53.87 54.74 55.72 57.01 58.43 59.86 60.87 61.17 61.06 61.04 61.13 61.87 62.23 62.43 62.52 62.47 62.23 61.94 61.76 62.07 62.20 62.15 61.76 61.49 61.36 61.48 61.66 62.11
36.43 36.63 36.73 36.72 36.70 36.83 36.99 37.25 37.44 37.67 37.98 38.46 38.89 39.12 39.23 39.39 39.46 39.58 39.90 40.18 40.50 40.69 40.69 40.69 40.94 41.18 41.53 41.78 42.24 42.70 43.04 43.38 43.80 44.35 45.07 46.04 47.27 48.51 49.73 50.94 51.67 52.15 52.77 53.51 54.65 56.13 57.91 59.56 59.94 59.93 59.98 60.68 61.54 61.96 62.23 62.40 62.06 61.78 61.63 61.54 62.05 62.06 62.02 61.54 61.36 61.39 61.39 61.49 61.87
35.71 35.87 35.95 35.90 36.01 36.01 36.15 36.40 36.67 36.82 37.14 37.61 37.97 38.19 38.38 38.64 38.95 39.19 39.39 39.78 39.97 40.05 39.96 39.99 40.35 40.87 41.32 41.60 41.95 42.34 42.73 42.98 43.58 44.26 45.08 45.93 47.00 47.97 49.01 49.86 50.32 50.76 51.39 52.12 52.99 54.06 55.52 57.34 58.87 59.61 59.93 60.59 61.13 61.62 62.00 62.25 61.97 61.69 61.58 61.81 62.11 62.01 61.76 61.53 61.47 61.41 61.42 61.45 61.71
34.74 35.00 35.27 35.33 35.54 35.71 35.84 35.95 36.02 36.19 36.50 36.94 37.05 37.22 37.45 37.77 38.08 38.40 38.67 38.92 39.06 39.28 39.57 39.85 40.17 40.66 41.05 41.40 41.60 42.00 42.34 42.81 42.98 43.83 44.86 45.51 46.32 47.17 47.85 48.49 49.14 49.75 50.51 51.19 51.94 52.96 54.07 55.24 57.61 59.07 60.19 60.86 61.31 61.71 62.05 62.32 62.02 61.73 61.71 62.04 61.91 61.85 61.72 61.47 61.42 61.41 61.42 61.47 61.68
33.94 34.28 34.64 34.87 35.20 35.35 35.49 35.57 35.62 35.75 35.94 36.40 36.33 36.33 36.58 36.91 37.32 37.55 37.73 38.03 38.52 38.98 39.42 39.55 39.64 39.72 39.88 40.47 40.64 40.94 41.33 41.93 42.39 43.02 43.75 44.47 45.21 45.93 46.65 47.46 48.30 49.14 49.94 50.76 51.38 52.31 53.29 54.34 56.30 58.34 59.89 61.04 61.53 61.73 61.91 62.18 61.84 61.51 61.25 61.23 61.47 61.63 61.61 61.44 61.27 61.27 61.33 61.34 61.70
33.61 33.77 33.93 34.16 34.51 34.69 34.89 35.13 35.33 35.53 35.74 35.89 35.94 35.94 36.18 36.69 36.96 37.32 37.57 37.99 38.41 38.73 38.94 38.95 39.30 39.58 39.74 39.95 40.31 40.70 41.13 41.65 42.25 42.93 43.53 44.04 44.69 45.42 46.16 46.98 47.99 48.85 49.63 50.54 51.25 52.00 52.84 53.93 55.57 56.96 58.18 58.94 60.06 60.99 61.65 62.24 61.84 61.42 60.93 60.64 61.09 61.43 61.44 61.31 61.27 61.18 61.24 61.32 61.65
33.35 33.40 33.49 33.62 33.94 34.15 34.48 34.85 34.97 35.08 35.18 35.43 35.51 35.76 36.19 36.64 36.98 37.36 37.66 37.91 38.10 38.47 38.80 39.01 39.49 39.75 39.75 39.95 40.27 40.70 41.14 41.59 42.04 42.61 43.05 43.44 43.96 44.65 45.51 46.47 47.35 48.31 49.36 50.42 51.15 51.93 52.71 53.76 54.95 56.52 57.82 58.94 59.50 60.03 60.78 61.70 61.81 61.39 61.01 60.66 61.03 61.29 61.47 61.44 61.40 61.27 61.13 61.32 61.78
32.71 33.03 33.22 33.47 33.81 34.01 34.22 34.53 34.72 34.76 34.81 34.89 35.23 35.60 36.05 36.42 36.75 37.07 37.26 37.46 37.83 38.31 38.80 39.17 39.56 39.78 39.90 39.93 40.23 40.65 41.17 41.69 42.05 42.52 42.92 43.32 43.84 44.36 45.16 45.90 46.83 47.98 49.21 50.45 51.36 52.15 52.97 53.77 54.80 56.20 57.53 58.86 59.23 59.74 60.21 61.01 61.29 61.23 61.12 61.03 61.02 61.20 61.37 61.37 61.29 61.20 61.21 61.47 61.75
31.99 32.40 32.72 32.94 33.35 33.70 34.04 34.21 34.47 34.57 34.64 34.64 35.02 35.40 35.72 35.76 36.28 36.68 37.05 37.44 37.98 38.42 38.83 39.16 39.49 39.74 39.94 40.19 40.51 40.85 41.37 41.72 42.12 42.65 43.01 43.41 43.76 44.43 45.10 45.85 46.83 47.85 49.05 50.42 51.56 52.57 53.36 54.15 54.93 56.11 57.26 58.51 59.12 59.55 59.97 60.54 60.80 60.78 60.76 60.92 60.91 60.94 61.07 61.17 61.10 61.06 61.12 61.41 61.81
31.73 32.07 32.33 32.54 32.96 33.33 33.61 33.79 33.94 34.17 34.35 34.54 34.95 35.21 35.61 35.76 36.32 36.82 37.26 37.82 38.17 38.38 38.73 39.26 39.67 39.83 40.11 40.49 40.97 41.40 41.76 42.11 42.55 42.95 43.22 43.53 43.98 44.60 45.41 46.30 47.32 48.31 49.37 50.44 51.58 52.56 53.50 54.31 55.21 56.12 57.15 58.13 58.87 59.33 59.83 60.27 60.46 60.48 60.40 60.42 60.53 60.54 60.71 60.78 60.87 60.88 60.94 61.47 62.02
31.57 31.89 32.14 32.48 32.78 33.02 33.12 33.20 33.41 33.73 33.93 34.28 34.65 35.16 35.55 36.08 36.58 37.08 37.53 37.99 38.08 38.46 39.00 39.64 39.96 40.16 40.40 40.69 41.23 41.62 41.98 42.47 42.87 43.09 43.31 43.53 44.16 44.87 45.63 46.52 47.64 48.58 49.60 50.62 51.46 52.31 53.22 54.13 55.11 56.10 57.02 57.80 58.60 59.22 59.68 60.01 60.10 60.21 60.17 60.04 60.09 60.19 60.36 60.62 60.76 60.81 61.07 61.68 62.17
31.41 31.66 31.86 32.14 32.42 32.57 32.66 32.75 32.98 33.37 33.77 34.02 34.47 34.99 35.53 36.25 36.85 37.27 37.68 38.00 38.25 38.80 39.43 40.16 40.47 40.72 40.93 41.14 41.54 42.02 42.33 42.60 42.87 43.09 43.39 43.75 44.24 44.96 45.80 46.74 47.86 48.98 50.05 51.17 52.10 52.83 53.41 54.18 54.92 55.77 56.57 57.37 58.16 58.85 59.39 59.77 60.01 59.89 59.81 59.77 59.71 59.89 60.15 60.60 60.76 60.83 61.07 61.58 62.11
31.32 31.41 31.56 31.72 31.96 32.08 32.17 32.38 32.68 33.17 33.62 33.94 34.46 35.02 35.68 36.40 37.07 37.55 38.07 38.39 38.85 39.40 40.09 40.75 41.06 41.40 41.71 42.02 42.20 42.46 42.69 43.00 43.09 43.35 43.62 44.06 44.73 45.45 46.16 47.14 48.13 49.29 50.41 51.44 52.61 53.65 54.42 55.10 55.57 56.00 56.47 57.05 57.86 58.45 58.99 59.52 59.82 59.92 59.89 59.67 59.53 59.63 59.97 60.54 60.87 60.92 61.16 61.49 62.23
30.81 30.98 31.18 31.36 31.48 31.68 31.85 32.11 32.57 33.13 33.69 34.08 34.60 35.11 35.73 36.40 37.06 37.69 38.26 38.67 39.31 39.84 40.31 40.82 41.39 41.96 42.64 43.09 43.09 43.04 43.18 43.22 43.44 43.66 44.06 44.59 45.31 46.07 46.88 47.68 48.49 49.20 50.00 50.81 51.83 52.91 54.18 55.41 56.17 56.73 56.98 57.24 57.86 58.26 58.79 59.24 59.66 59.95 60.18 60.10 59.90 60.02 60.22 60.63 60.92 61.08 61.18 61.63 62.21
30.27 30.49 30.86 30.96 31.20 31.37 31.68 32.06 32.59 33.18 33.68 34.10 34.68 35.13 35.67 36.12 36.87 37.52 38.11 38.49 39.01 39.44 39.92 40.34 40.91 41.75 42.59 43.22 43.53 43.71 43.71 43.66 43.80 44.02 44.37 44.91 45.80 46.61 47.41 48.04 48.58 49.11 49.69 50.17 50.79 51.68 52.85 54.29 55.93 56.96 57.58 57.70 57.90 58.21 58.65 58.97 59.38 59.93 60.43 60.70 60.57 60.68 60.68 60.68 60.94 61.04 61.18 61.59 61.92
29.94 30.22 30.44 30.73 30.91 31.19 31.59 31.96 32.51 33.03 33.61 34.00 34.60 35.04 35.39 35.82 36.45 37.07 37.67 38.11 38.55 38.89 39.24 39.60 40.30 41.14 41.93 42.68 43.44 43.97 44.19 44.23 44.28 44.46 44.82 45.35 45.89 46.56 47.28 47.86 48.26 48.88 49.46 50.04 50.57 51.33 52.40 53.69 55.55 57.00 57.90 58.25 58.27 58.35 58.60 58.83 59.34 59.98 60.57 60.97 60.97 60.97 60.93 60.50 61.06 61.18 61.36 61.36 61.77
29.63 30.03 30.27 30.58 30.78 31.07 31.42 31.86 32.33 32.75 33.28 33.83 34.32 34.75 35.23 35.65 36.02 36.50 37.02 37.72 38.19 38.49 38.71 39.16 39.95 40.60 41.30 42.01 43.03 43.78 44.40 44.76 44.81 45.04 45.35 45.62 46.07 46.56 46.97 47.46 48.03 48.66 49.23 49.86 50.53 51.37 52.54 53.88 55.60 57.05 58.14 58.49 58.60 58.49 58.56 58.88 59.34 59.89 60.48 60.75 60.63 60.86 60.89 60.95 61.27 61.42 61.46 61.50 61.77
29.54 29.81 30.19 30.41 30.74 31.10 31.45 31.79 32.23 32.54 33.13 33.66 34.17 34.71 35.15 35.62 35.86 36.18 36.70 37.33 37.85 38.19 38.58 38.96 39.67 40.32 40.90 41.43 42.32 43.11 43.82 44.76 45.04 45.35 45.62 45.89 46.25 46.52 46.88 47.23 47.72 48.43 49.01 49.59 50.44 51.56 52.95 54.58 56.17 57.17 57.94 58.33 58.44 58.55 58.58 58.85 59.31 59.72 60.13 60.32 60.17 60.40 60.78 61.20 61.31 61.29 61.21 61.41 61.65
29.38 29.64 30.00 30.41 30.75 31.09 31.44 31.84 32.19 32.71 33.15 33.69 34.26 34.82 35.25 35.68 35.88 35.99 36.36 36.99 37.72 38.24 38.71 38.99 39.55 40.09 40.71 41.39 42.01 42.67 43.51 44.58 45.22 45.53 45.89 46.16 46.38 46.47 46.70 47.05 47.50 48.12 48.75 49.64 50.62 51.97 53.73 55.55 56.78 57.37 57.77 57.97 58.13 58.25 58.41 58.68 59.00 59.18 59.46 59.68 59.84 60.20 60.62 61.02 61.01 60.89 61.04 61.37 61.65
29.24 29.60 29.94 30.48 30.80 31.13 31.51 32.00 32.47 32.91 33.30 33.70 34.20 34.78 35.26 35.85 36.09 36.24 36.50 36.91 37.65 38.21 38.75 39.07 39.51 40.00 40.58 41.29 41.91 42.58 43.42 44.40 45.30 45.84 46.20 46.47 46.52 46.56 46.79 47.14 47.59 48.08 48.94 49.83 51.45 53.38 55.15 56.61 57.06 57.37 57.82 57.97 58.04 58.07 58.16 58.39 58.51 58.65 58.81 59.03 59.58 60.25 60.71 60.97 60.92 60.82 60.97 61.34 61.52
29.29 29.73 30.20 30.64 30.92 31.31 31.83 32.34 32.76 33.17 33.49 33.84 34.32 34.86 35.45 35.83 36.15 36.54 36.84 37.34 37.91 38.35 38.77 39.11 39.73 40.31 40.84 41.50 42.13 42.80 43.56 44.54 45.44 46.07 46.56 46.83 46.92 47.01 47.19 47.59 47.91 48.45 49.12 50.43 52.77 54.94 56.47 57.18 57.50 57.73 57.95 58.17 58.13 58.03 57.94 57.99 58.17 58.13 58.28 58.53 59.35 60.16 60.67 60.89 60.75 60.78 61.06 61.56 61.74
29.44 29.84 30.28 30.70 31.13 31.62 32.06 32.62 33.06 33.43 33.70 34.03 34.57 35.02 35.47 35.77 36.22 36.64 37.22 37.65 38.01 38.40 38.93 39.50 40.25 40.79 41.37 42.04 42.71 43.29 43.91 44.58 45.48 46.25 46.92 47.32 47.46 47.50 47.68 48.04 48.40 48.98 50.11 52.05 54.21 55.78 56.75 57.23 57.56 57.81 58.00 58.27 58.37 58.22 57.99 57.94 57.86 57.87 57.97 58.15 58.89 59.75 60.33 60.44 60.39 60.58 60.97 61.49 61.85
29.60 29.94 30.34 30.60 31.17 31.64 32.11 32.63 32.97 33.36 33.67 34.02 34.49 34.86 35.33 35.69 36.08 36.60 37.08 37.61 38.00 38.58 39.15 39.93 40.64 41.37 42.04 42.67 43.29 43.83 44.27 44.81 45.53 46.38 47.06 47.64 47.73 47.95 48.04 48.49 49.07 50.15 51.68 53.85 54.48 54.68 54.98 55.71 57.01 57.63 57.74 58.01 58.40 58.46 58.31 58.31 58.09 57.96 57.87 58.00 58.46 59.16 59.80 59.98 59.98 60.23 60.41 60.86 61.31
29.64 29.93 30.23 30.59 31.05 31.53 32.06 32.43 32.77 33.13 33.50 34.01 34.47 34.81 35.15 35.46 35.98 36.36 36.88 37.33 37.91 38.67 39.37 40.03 40.70 41.55 42.35 42.98 43.60 44.36 44.99 45.53 46.11 46.74 47.15 47.64 47.91 48.18 48.49 48.99 49.93 51.46 52.90 53.54 51.16 49.89 49.89 51.16 54.31 56.48 57.75 58.02 58.50 58.56 58.54 58.31 58.22 58.08 57.94 57.94 58.22 58.83 59.45 59.61 59.89 60.18 60.21 60.34 61.19
29.62 29.98 30.25 30.69 31.00 31.48 31.92 32.34 32.70 33.11 33.51 33.94 34.37 34.71 34.98 35.44 35.91 36.44 36.87 37.36 38.07 38.84 39.59 40.34 41.05 41.49 42.12 42.97 43.73 44.58 45.44 46.38 47.01 47.41 47.64 47.82 48.00 48.40 48.99 49.89 51.15 52.68 53.40 52.01 49.40 47.82 47.46 47.82 49.36 51.80 54.92 58.29 58.64 58.58 58.42 58.33 58.27 58.12 58.16 58.28 58.53 59.01 59.50 59.86 60.14 60.50 60.67 60.76 61.59
29.52 29.71 30.10 30.63 31.14 31.44 31.80 32.36 32.84 33.14 33.53 33.80 34.14 34.44 34.87 35.48 35.98 36.46 36.95 37.53 38.38 39.36 40.25 41.09 41.85 42.16 42.38 43.50 44.04 44.81 45.66 46.78 47.64 48.09 48.22 48.27 48.27 48.58 49.26 50.34 51.74 53.22 53.18 50.61 48.50 47.23 46.78 46.87 47.28 48.59 51.53 57.00 58.33 58.63 58.45 58.40 58.37 58.26 58.28 58.51 58.99 59.48 59.77 60.16 60.21 59.98 60.07 60.43 61.49
29.10 29.45 29.92 30.58 30.91 31.35 31.88 32.50 32.75 32.97 33.27 33.61 34.00 34.55 35.04 35.65 35.99 36.52 37.22 38.06 39.05 40.11 41.18 42.34 43.51 44.44 44.98 45.39 45.48 45.93 46.47 47.41 48.18 48.54 48.67 48.63 48.63 48.86 49.40 50.16 51.51 51.96 51.42 49.31 47.87 47.01 46.60 46.78 46.96 47.37 49.05 53.16 57.57 59.08 58.69 58.51 58.42 58.45 58.53 58.72 59.52 59.94 60.23 60.86 60.41 59.86 59.65 60.02 61.18
28.84 29.38 29.84 30.33 30.80 31.42 31.92 32.31 32.43 32.77 33.16 33.73 34.21 34.70 35.18 35.65 36.13 36.92 37.68 38.52 39.49 40.46 41.71 43.09 44.76 46.51 47.73 48.05 47.87 47.87 47.95 48.40 48.81 48.90 48.95 48.81 48.81 48.95 49.40 49.98 50.83 50.52 49.44 47.73 47.28 46.92 46.78 46.69 46.60 46.64 47.55 50.63 56.06 58.52 59.17 58.99 58.99 58.92 58.91 58.87 59.49 60.23 60.66 60.79 60.39 59.86 59.55 59.88 60.69
28.94 29.31 29.71 30.22 30.79 31.32 31.72 31.99 32.38 32.82 33.39 33.93 34.38 34.73 35.16 35.69 36.35 37.01 37.81 38.51 39.40 40.60 41.93 43.41 44.85 46.24 47.78 49.58 49.98 49.71 49.31 49.31 49.49 49.44 49.31 48.99 48.90 49.13 49.49 49.67 50.88 50.83 49.67 47.10 46.92 46.78 46.78 46.60 46.33 46.15 46.83 48.46 53.62 57.45 59.50 59.62 59.70 59.52 59.39 59.12 59.45 60.07 60.60 60.36 60.07 59.77 59.55 59.93 60.24
28.90 29.26 29.72 30.23 30.68 31.12 31.58 31.99 32.57 33.05 33.48 33.93 34.24 34.63 35.02 35.58 36.12 36.78 37.53 38.45 39.48 40.68 41.98 43.68 44.71 45.61 46.96 49.22 50.57 50.75 50.39 50.17 50.21 50.12 50.03 49.98 49.31 49.53 50.25 50.83 51.32 51.10 49.85 47.42 46.83 46.60 46.55 46.33 45.97 46.06 46.51 47.42 52.22 56.55 59.54 60.24 60.04 59.88 59.62 59.54 59.67 60.02 60.22 60.15 59.81 59.50 59.55 60.01 59.88
28.75 29.21 29.58 30.00 30.54 30.94 31.49 32.04 32.49 32.88 33.30 33.64 34.02 34.50 34.93 35.42 35.98 36.55 37.48 38.54 39.70 40.95 42.25 43.42 44.13 44.58 45.39 46.92 49.40 50.66 51.11 50.80 50.66 50.66 50.75 51.02 51.29 51.56 51.87 52.14 52.45 51.87 50.35 47.96 47.05 46.55 46.15 45.60 45.15 45.60 46.33 46.96 51.04 55.64 59.27 60.27 60.09 59.98 59.85 59.99 60.11 60.18 60.29 60.23 60.15 59.95 59.90 59.95 59.86
28.49 28.86 29.40 29.82 30.27 30.86 31.37 31.90 32.34 32.65 33.04 33.38 33.89 34.38 34.90 35.15 35.62 36.38 37.35 38.49 39.78 40.99 41.89 42.52 42.52 42.74 43.27 44.17 46.15 48.54 50.58 51.52 51.38 50.89 50.62 51.07 52.02 52.83 53.56 54.01 54.72 52.92 49.99 47.46 46.87 46.28 45.51 44.52 44.24 44.88 45.88 46.33 51.45 55.92 58.97 59.71 59.77 59.83 60.19 60.68 60.70 60.74 60.65 60.65 60.34 60.12 59.85 59.72 59.62
28.17 28.62 29.13 29.65 30.18 30.68 31.14 31.55 31.94 32.38 32.68 33.06 33.66 34.20 34.54 34.69 35.03 35.65 36.66 37.94 39.41 40.66 41.43 41.48 41.39 41.56 41.97 42.50 43.13 44.30 45.97 48.37 51.22 52.84 53.56 53.69 53.74 53.06 52.30 51.98 52.12 48.55 44.56 43.93 45.29 45.42 44.70 43.79 43.79 44.34 45.24 45.78 52.35 56.79 59.04 59.21 59.21 59.39 59.43 59.32 59.45 59.80 60.09 60.21 59.86 59.57 59.35 59.22 59.44
27.88 28.39 28.90 29.35 29.91 30.36 30.77 31.09 31.57 31.96 32.31 32.65 33.22 33.75 34.13 34.28 34.57 35.10 36.11 37.34 38.73 39.90 40.45 40.45 40.45 40.58 40.80 41.16 41.34 41.46 41.95 43.39 46.15 48.95 51.44 53.38 52.20 49.58 47.05 45.88 45.52 42.62 40.13 41.03 43.34 44.24 44.06 43.61 43.79 44.52 45.74 47.55 54.12 57.78 58.90 58.34 57.22 55.86 54.56 53.20 53.29 53.91 54.67 55.30 56.33 57.27 58.22 58.72 59.37
27.74 28.07 28.49 28.94 29.47 29.88 30.32 30.71 30.98 31.37 31.80 32.15 32.63 33.12 33.46 33.75 34.25 34.96 35.88 36.80 38.15 38.92 39.11 39.02 38.93 38.88 38.92 39.14 39.53 39.57 39.87 41.18 42.71 44.21 45.61 46.60 47.05 46.78 46.15 45.43 44.88 42.84 40.89 41.16 42.70 43.43 43.70 43.61 43.88 44.79 47.05 51.49 55.70 57.00 56.45 55.17 53.38 51.71 50.22 49.13 48.64 48.14 47.78 47.78 48.81 50.48 52.24 53.91 56.51
27.50 28.05 28.35 28.65 29.03 29.47 29.91 30.30 30.64 30.85 31.24 31.60 32.19 32.58 32.83 33.16 33.81 34.51 35.48 36.53 37.56 37.93 37.89 37.71 37.44 37.30 37.16 37.37 37.68 37.85 38.07 38.57 39.56 40.42 41.19 41.82 43.09 43.81 43.99 43.58 43.53 42.17 40.89 41.12 42.52 43.43 43.88 43.97 43.97 45.29 48.14 53.07 54.56 54.14 52.74 51.56 50.31 49.09 47.91 46.96 46.42 46.06 45.92 45.83 45.61 45.52 45.52 45.79 47.23
27.36 27.96 28.29 28.42 28.65 29.06 29.50 29.93 30.18 30.51 30.78 31.10 31.71 32.24 32.74 32.98 33.43 34.10 34.93 35.80 36.65 37.01 36.89 36.59 36.32 36.17 36.12 36.12 36.34 36.47 36.47 36.64 37.04 37.58 38.12 38.44 39.30 40.20 40.92 41.27 41.45 41.17 40.67 40.48 41.66 42.80 43.70 44.24 44.24 45.38 47.96 52.35 52.38 51.66 50.66 49.49 48.27 47.14 46.11 45.25 44.79 44.66 44.62 44.84 44.75 44.30 43.71 42.62 41.48
27.25 27.73 28.12 28.12 28.38 28.77 29.13 29.52 29.85 30.16 30.42 30.71 31.39 31.89 32.35 32.67 33.07 33.72 34.52 35.28 36.07 36.34 36.16 35.85 35.51 35.51 35.51 35.34 35.15 35.10 34.92 34.99 35.30 35.48 35.74 36.05 36.50 37.13 37.85 38.74 39.32 39.59 39.81 40.04 41.07 42.02 42.75 43.43 43.97 44.74 46.33 49.63 50.75 50.48 49.31 47.91 46.51 45.47 44.71 44.12 43.67 43.48 43.39 43.67 43.53 43.39 42.90 42.21 41.31
27.04 27.52 27.69 27.69 28.03 28.42 28.84 29.18 29.50 29.79 30.20 30.46 30.92 31.41 31.89 32.32 32.73 33.47 34.22 34.71 35.29 35.60 35.64 35.31 35.11 35.03 35.03 34.58 34.17 33.76 33.49 33.53 33.75 33.91 33.95 33.99 34.40 34.85 35.47 36.21 37.24 37.87 38.38 39.05 40.22 41.35 42.07 42.70 43.34 44.11 45.69 48.82 49.76 49.44 48.36 47.10 45.79 44.80 44.21 43.80 43.44 43.03 42.67 42.45 42.36 42.18 41.86 41.72 41.45
27.01 27.25 27.16 27.22 27.52 27.97 28.52 28.89 29.20 29.47 29.84 30.18 30.53 31.14 31.67 32.15 32.58 33.11 33.57 33.83 34.28 34.66 34.79 34.77 34.58 34.47 34.47 34.10 33.63 33.01 32.41 32.18 32.40 32.72 32.90 32.81 32.94 33.28 33.76 34.18 35.21 36.21 37.11 37.88 39.10 40.18 41.30 41.94 42.48 43.30 44.74 47.37 48.68 48.63 47.82 46.65 45.03 43.90 43.35 43.17 43.08 42.72 42.31 41.73 41.32 40.87 40.64 40.78 41.09
MSLP
1010.96 1010.84 1010.72 1010.56 1010.36 1010.20 1009.96 1009.76 1009.56 1009.40 1009.20 1009.00 1008.76 1008.48 1008.28 1008.08 1007.76 1007.48 1007.32 1007.20 1007.04 1006.80 1006.64 1006.48 1006.28 1006.08 1005.92 1005.76 1005.60 1005.36 1005.12 1004.80 1004.40 1004.00 1003.64 1003.36 1003.04 1002.68 1002.40 1002.12 1001.88 1001.60 1001.28 1001.04 1000.80 1000.60 1000.40 1000.24 1000.20 1000.12 1000.04 999.92 999.80 999.72 999.68 999.72 999.80 999.96 1000.20 1000.48 1000.48 1000.36 1000.12 999.84 999.64 999.68 1000.16 1000.84 1001.20
1010.92 1010.80 1010.72 1010.60 1010.44 1010.24 1010.00 1009.76 1009.56 1009.36 1009.20 1008.96 1008.76 1008.48 1008.28 1008.08 1007.76 1007.48 1007.28 1007.12 1006.92 1006.80 1006.60 1006.36 1006.24 1006.08 1005.92 1005.72 1005.60 1005.44 1005.20 1004.88 1004.56 1004.20 1003.76 1003.36 1003.04 1002.72 1002.44 1002.16 1001.88 1001.64 1001.36 1001.16 1000.96 1000.76 1000.48 1000.32 1000.20 1000.04 999.96 999.96 999.88 999.68 999.56 999.48 999.60 999.84 1000.08 1000.24 1000.20 1000.08 999.84 999.48 999.32 999.48 1000.04 1000.80 1001.12
1010.92 1010.84 1010.76 1010.56 1010.40 1010.20 1010.00 1009.72 1009.48 1009.32 1009.16 1008.96 1008.76 1008.56 1008.36 1008.08 1007.84 1007.56 1007.28 1007.08 1006.92 1006.76 1006.60 1006.36 1006.20 1006.04 1005.92 1005.72 1005.60 1005.44 1005.20 1004.92 1004.64 1004.32 1003.92 1003.44 1003.00 1002.64 1002.36 1002.08 1001.84 1001.64 1001.44 1001.28 1001.08 1000.84 1000.64 1000.40 1000.20 999.96 999.88 999.80 999.72 999.56 999.40 999.36 999.40 999.64 999.84 999.92 999.88 999.88 999.76 999.44 999.16 999.32 999.92 1000.68 1000.96
1011.00 1010.88 1010.72 1010.52 1010.36 1010.20 1010.00 1009.76 1009.52 1009.36 1009.20 1009.04 1008.80 1008.64 1008.44 1008.20 1007.92 1007.64 1007.36 1007.08 1006.92 1006.76 1006.56 1006.36 1006.20 1006.04 1005.92 1005.72 1005.52 1005.32 1005.08 1004.88 1004.56 1004.20 1003.84 1003.40 1003.00 1002.60 1002.28 1002.08 1001.80 1001.60 1001.40 1001.20 1001.08 1000.84 1000.64 1000.44 1000.20 999.96 999.76 999.64 999.48 999.36 999.20 999.16 999.20 999.32 999.48 999.64 999.52 999.48 999.32 999.08 998.92 999.12 999.68 1000.36 1000.68
1010.96 1010.84 1010.76 1010.56 1010.36 1010.20 1010.08 1009.88 1009.64 1009.48 1009.24 1009.08 1008.88 1008.64 1008.36 1008.16 1007.92 1007.68 1007.40 1007.12 1006.88 1006.64 1006.48 1006.32 1006.12 1005.92 1005.76 1005.60 1005.36 1005.12 1004.88 1004.64 1004.36 1004.08 1003.68 1003.28 1002.92 1002.60 1002.28 1002.00 1001.76 1001.52 1001.32 1001.12 1000.92 1000.76 1000.60 1000.44 1000.20 999.92 999.68 999.48 999.28 999.12 999.04 998.96 998.96 999.00 999.12 999.32 999.20 999.00 998.80 998.68 998.64 998.80 999.24 999.92 1000.32
1010.96 1010.84 1010.72 1010.60 1010.44 1010.28 1010.08 1009.92 1009.68 1009.48 1009.24 1009.04 1008.80 1008.48 1008.24 1008.00 1007.80 1007.52 1007.24 1006.96 1006.68 1006.48 1006.36 1006.20 1006.04 1005.76 1005.56 1005.36 1005.20 1004.92 1004.64 1004.40 1004.16 1003.88 1003.60 1003.20 1002.92 1002.60 1002.32 1002.00 1001.76 1001.48 1001.28 1001.04 1000.80 1000.60 1000.44 1000.32 1000.12 999.80 999.52 999.28 999.00 998.80 998.80 998.80 998.80 998.76 998.80 998.96 998.92 998.76 998.52 998.36 998.28 998.40 998.80 999.48 999.92
1011.00 1010.84 1010.72 1010.56 1010.44 1010.24 1010.08 1009.80 1009.60 1009.36 1009.08 1008.88 1008.52 1008.20 1007.96 1007.76 1007.56 1007.32 1007.08 1006.80 1006.52 1006.32 1006.12 1006.00 1005.76 1005.56 1005.36 1005.16 1004.92 1004.64 1004.40 1004.12 1003.84 1003.64 1003.36 1003.08 1002.72 1002.44 1002.20 1001.92 1001.68 1001.44 1001.16 1000.88 1000.64 1000.44 1000.24 1000.12 999.92 999.64 999.32 999.12 998.88 998.64 998.48 998.52 998.48 998.48 998.52 998.60 998.60 998.52 998.36 998.12 998.00 998.08 998.40 999.00 999.48
1011.00 1010.80 1010.64 1010.48 1010.32 1010.08 1009.84 1009.64 1009.36 1009.12 1008.84 1008.52 1008.20 1007.92 1007.68 1007.48 1007.28 1007.04 1006.80 1006.52 1006.28 1006.04 1005.84 1005.68 1005.48 1005.24 1005.08 1004.88 1004.64 1004.36 1004.12 1003.84 1003.56 1003.32 1003.08 1002.84 1002.52 1002.28 1002.08 1001.84 1001.64 1001.36 1001.08 1000.80 1000.52 1000.28 1000.04 999.88 999.68 999.40 999.12 998.92 998.68 998.48 998.28 998.20 998.16 998.16 998.16 998.20 998.20 998.20 998.08 997.84 997.72 997.72 998.00 998.56 999.08
1010.92 1010.68 1010.48 1010.32 1010.08 1009.84 1009.60 1009.36 1009.12 1008.84 1008.56 1008.20 1007.92 1007.68 1007.48 1007.20 1007.04 1006.80 1006.48 1006.24 1005.96 1005.76 1005.60 1005.36 1005.08 1004.92 1004.76 1004.52 1004.24 1004.04 1003.76 1003.56 1003.28 1003.00 1002.80 1002.60 1002.36 1002.12 1001.88 1001.68 1001.48 1001.20 1000.88 1000.64 1000.36 1000.08 999.84 999.64 999.36 999.08 998.88 998.68 998.48 998.20 998.04 997.92 997.88 997.80 997.80 997.80 997.80 997.72 997.56 997.44 997.36 997.36 997.52 998.12 998.60
1010.72 1010.48 1010.28 1010.08 1009.80 1009.60 1009.36 1009.08 1008.80 1008.56 1008.28 1007.96 1007.64 1007.40 1007.20 1007.00 1006.76 1006.48 1006.24 1005.96 1005.68 1005.48 1005.24 1004.96 1004.80 1004.60 1004.36 1004.08 1003.84 1003.64 1003.40 1003.20 1002.92 1002.64 1002.40 1002.20 1002.00 1001.76 1001.56 1001.36 1001.12 1000.84 1000.56 1000.32 1000.08 999.84 999.60 999.36 999.04 998.76 998.52 998.36 998.20 997.96 997.76 997.64 997.52 997.48 997.48 997.48 997.36 997.20 997.08 997.04 997.00 996.92 997.08 997.60 998.08
1010.48 1010.28 1010.08 1009.80 1009.52 1009.32 1009.08 1008.84 1008.52 1008.28 1008.00 1007.68 1007.36 1007.12 1006.92 1006.68 1006.44 1006.16 1005.92 1005.68 1005.40 1005.08 1004.80 1004.64 1004.48 1004.20 1003.92 1003.64 1003.44 1003.20 1002.96 1002.76 1002.48 1002.20 1001.96 1001.76 1001.56 1001.36 1001.16 1000.92 1000.72 1000.48 1000.20 999.92 999.76 999.52 999.24 998.96 998.64 998.36 998.12 997.92 997.84 997.68 997.48 997.32 997.20 997.20 997.20 997.20 997.12 996.96 996.80 996.64 996.60 996.48 996.64 997.12 997.68
1010.32 1010.08 1009.84 1009.60 1009.36 1009.12 1008.88 1008.60 1008.28 1008.00 1007.68 1007.40 1007.08 1006.80 1006.56 1006.32 1006.08 1005.80 1005.60 1005.36 1005.00 1004.64 1004.36 1004.20 1004.08 1003.76 1003.48 1003.20 1002.92 1002.72 1002.48 1002.24 1002.04 1001.76 1001.52 1001.28 1001.08 1000.92 1000.72 1000.48 1000.28 1000.04 999.72 999.48 999.36 999.20 998.92 998.60 998.24 997.92 997.68 997.48 997.40 997.32 997.16 996.96 996.88 996.80 996.80 996.84 996.92 996.80 996.56 996.32 996.20 996.08 996.24 996.80 997.32
1010.12 1009.88 1009.64 1009.36 1009.16 1008.92 1008.64 1008.32 1008.04 1007.72 1007.36 1007.08 1006.76 1006.48 1006.20 1005.92 1005.68 1005.48 1005.20 1004.88 1004.56 1004.20 1003.96 1003.76 1003.56 1003.32 1003.00 1002.68 1002.44 1002.20 1002.00 1001.76 1001.56 1001.36 1001.08 1000.80 1000.60 1000.40 1000.24 1000.04 999.76 999.48 999.24 999.04 998.84 998.64 998.44 998.12 997.84 997.56 997.32 997.08 996.96 996.88 996.76 996.64 996.52 996.40 996.36 996.48 996.56 996.56 996.36 996.12 995.92 995.72 995.92 996.64 996.96
1009.96 1009.68 1009.44 1009.20 1008.96 1008.68 1008.36 1008.04 1007.76 1007.40 1007.08 1006.72 1006.44 1006.16 1005.88 1005.56 1005.32 1005.08 1004.84 1004.48 1004.12 1003.80 1003.52 1003.32 1003.04 1002.76 1002.48 1002.20 1001.92 1001.72 1001.48 1001.24 1001.04 1000.80 1000.60 1000.32 1000.08 999.92 999.72 999.48 999.20 999.00 998.80 998.52 998.32 998.08 997.84 997.52 997.28 997.04 996.84 996.68 996.52 996.40 996.32 996.24 996.12 996.04 995.96 996.08 996.16 996.20 996.20 996.00 995.76 995.52 995.64 996.20 996.52
1009.76 1009.48 1009.24 1009.00 1008.72 1008.44 1008.12 1007.76 1007.44 1007.08 1006.72 1006.36 1006.08 1005.76 1005.48 1005.20 1004.92 1004.68 1004.44 1004.08 1003.76 1003.48 1003.20 1002.92 1002.56 1002.24 1001.96 1001.72 1001.44 1001.20 1000.96 1000.76 1000.52 1000.28 1000.04 999.76 999.56 999.36 999.16 998.88 998.64 998.48 998.28 998.08 997.88 997.68 997.44 997.08 996.80 996.52 996.36 996.20 996.08 995.92 995.84 995.80 995.76 995.64 995.64 995.64 995.68 995.80 995.88 995.76 995.56 995.32 995.32 995.72 996.08
1009.56 1009.28 1009.08 1008.80 1008.44 1008.12 1007.80 1007.48 1007.12 1006.76 1006.40 1006.08 1005.76 1005.48 1005.20 1004.84 1004.56 1004.32 1004.08 1003.76 1003.44 1003.16 1002.84 1002.52 1002.20 1001.88 1001.56 1001.28 1001.00 1000.72 1000.48 1000.20 999.96 999.72 999.48 999.20 999.00 998.80 998.56 998.36 998.16 997.92 997.76 997.64 997.44 997.24 997.04 996.80 996.48 996.20 995.88 995.68 995.52 995.48 995.40 995.36 995.32 995.32 995.28 995.24 995.28 995.36 995.36 995.32 995.20 995.04 995.08 995.56 995.88
1009.36 1009.08 1008.80 1008.48 1008.16 1007.84 1007.48 1007.16 1006.84 1006.48 1006.08 1005.76 1005.44 1005.20 1004.92 1004.56 1004.24 1003.96 1003.72 1003.44 1003.16 1002.80 1002.48 1002.16 1001.88 1001.56 1001.20 1000.80 1000.52 1000.24 999.96 999.64 999.36 999.08 998.88 998.64 998.40 998.20 998.04 997.84 997.64 997.48 997.36 997.20 996.96 996.72 996.48 996.28 996.04 995.76 995.44 995.20 995.04 994.96 994.92 994.92 994.92 994.92 994.92 994.92 994.92 994.92 994.88 994.84 994.84 994.80 994.96 995.52 995.76
1009.12 1008.80 1008.48 1008.20 1007.88 1007.52 1007.20 1006.84 1006.52 1006.20 1005.84 1005.48 1005.16 1004.84 1004.56 1004.28 1003.96 1003.64 1003.36 1003.08 1002.80 1002.48 1002.08 1001.72 1001.48 1001.16 1000.80 1000.40 1000.08 999.76 999.48 999.16 998.80 998.48 998.24 998.08 997.88 997.72 997.56 997.40 997.20 997.08 996.92 996.72 996.48 996.20 995.92 995.68 995.48 995.20 994.88 994.64 994.48 994.44 994.44 994.44 994.48 994.48 994.52 994.60 994.64 994.60 994.56 994.52 994.52 994.60 994.88 995.32 995.48
1008.88 1008.56 1008.20 1007.92 1007.60 1007.20 1006.92 1006.60 1006.24 1005.92 1005.52 1005.20 1004.88 1004.56 1004.24 1003.96 1003.68 1003.36 1003.00 1002.64 1002.40 1002.12 1001.76 1001.32 1000.96 1000.64 1000.32 999.96 999.64 999.36 999.08 998.68 998.36 998.00 997.72 997.56 997.40 997.24 997.08 996.92 996.80 996.64 996.48 996.24 996.00 995.68 995.40 995.16 994.88 994.56 994.28 994.08 994.00 993.96 994.00 994.04 994.04 994.08 994.12 994.20 994.32 994.36 994.36 994.28 994.28 994.48 994.76 995.08 995.20
1008.64 1008.32 1007.96 1007.64 1007.32 1007.00 1006.64 1006.28 1005.92 1005.60 1005.20 1004.88 1004.56 1004.24 1003.92 1003.60 1003.28 1002.92 1002.60 1002.20 1001.96 1001.68 1001.36 1000.92 1000.48 1000.08 999.76 999.44 999.12 998.84 998.52 998.20 997.88 997.52 997.24 997.08 996.92 996.76 996.60 996.44 996.32 996.16 996.00 995.76 995.48 995.20 994.92 994.60 994.20 993.92 993.72 993.64 993.56 993.52 993.56 993.64 993.68 993.72 993.80 993.92 994.08 994.16 994.12 994.00 993.96 994.20 994.64 994.92 995.00
1008.40 1008.08 1007.76 1007.40 1007.08 1006.76 1006.36 1006.04 1005.64 1005.28 1004.92 1004.56 1004.20 1003.84 1003.48 1003.16 1002.84 1002.48 1002.16 1001.80 1001.48 1001.20 1000.84 1000.44 1000.00 999.60 999.20 998.92 998.60 998.24 997.96 997.72 997.44 997.08 996.80 996.56 996.36 996.20 996.08 995.96 995.88 995.68 995.48 995.28 995.00 994.68 994.32 993.92 993.64 993.40 993.24 993.20 993.12 993.16 993.20 993.32 993.36 993.48 993.56 993.68 993.84 993.92 993.84 993.72 993.68 993.92 994.36 994.80 994.88
1008.20 1007.88 1007.52 1007.20 1006.84 1006.48 1006.16 1005.76 1005.36 1005.00 1004.60 1004.20 1003.80 1003.44 1003.08 1002.72 1002.36 1002.04 1001.68 1001.36 1001.08 1000.72 1000.32 999.92 999.48 999.08 998.72 998.36 998.04 997.72 997.40 997.20 996.88 996.56 996.24 996.04 995.80 995.64 995.52 995.48 995.40 995.24 995.04 994.80 994.44 994.04 993.64 993.32 993.12 993.00 992.88 992.80 992.72 992.76 992.88 992.96 993.08 993.20 993.32 993.44 993.60 993.64 993.64 993.56 993.52 993.68 994.08 994.56 994.64
1008.04 1007.72 1007.36 1007.00 1006.60 1006.24 1005.88 1005.48 1005.08 1004.64 1004.20 1003.76 1003.36 1003.00 1002.64 1002.28 1001.92 1001.60 1001.24 1000.92 1000.64 1000.20 999.76 999.40 998.96 998.56 998.16 997.84 997.48 997.20 996.88 996.60 996.28 995.96 995.68 995.44 995.24 995.08 994.96 994.92 994.80 994.64 994.40 994.08 993.68 993.32 993.00 992.84 992.72 992.60 992.48 992.44 992.36 992.36 992.48 992.64 992.76 992.92 993.08 993.20 993.36 993.48 993.44 993.44 993.40 993.56 993.92 994.36 994.48
1007.88 1007.52 1007.16 1006.80 1006.36 1006.00 1005.60 1005.20 1004.72 1004.28 1003.84 1003.40 1003.00 1002.64 1002.24 1001.88 1001.48 1001.16 1000.80 1000.48 1000.08 999.68 999.28 998.88 998.44 998.00 997.64 997.28 996.96 996.64 996.36 996.04 995.64 995.32 995.04 994.84 994.64 994.48 994.36 994.32 994.20 993.96 993.64 993.28 992.92 992.64 992.48 992.44 992.36 992.24 992.20 992.12 992.04 992.04 992.12 992.28 992.44 992.60 992.76 992.92 993.16 993.24 993.28 993.24 993.24 993.44 993.76 994.20 994.36
1007.68 1007.36 1006.96 1006.56 1006.12 1005.72 1005.28 1004.84 1004.36 1003.92 1003.48 1003.04 1002.64 1002.28 1001.88 1001.48 1001.12 1000.76 1000.36 1000.00 999.60 999.20 998.80 998.36 997.92 997.52 997.12 996.72 996.40 996.08 995.76 995.44 995.08 994.68 994.40 994.20 994.08 993.92 993.80 993.72 993.52 993.24 992.92 992.56 992.32 992.20 992.12 992.08 992.04 991.96 991.92 991.88 991.76 991.68 991.76 991.92 992.08 992.24 992.44 992.64 992.80 993.00 993.08 993.12 993.12 993.40 993.88 994.28 994.32
1007.52 1007.16 1006.76 1006.32 1005.88 1005.44 1005.00 1004.52 1004.08 1003.56 1003.12 1002.72 1002.32 1001.92 1001.48 1001.12 1000.76 1000.36 999.96 999.52 999.08 998.64 998.24 997.84 997.36 996.92 996.52 996.12 995.76 995.44 995.12 994.76 994.40 994.08 993.84 993.68 993.48 993.36 993.24 993.08 992.84 992.52 992.20 991.92 991.76 991.72 991.72 991.72 991.72 991.72 991.68 991.60 991.48 991.40 991.48 991.64 991.76 991.92 992.12 992.32 992.48 992.68 992.84 993.00 993.08 993.44 993.88 994.12 994.08
1007.36 1006.92 1006.48 1006.08 1005.64 1005.16 1004.68 1004.20 1003.76 1003.28 1002.84 1002.44 1002.04 1001.56 1001.16 1000.80 1000.40 999.96 999.56 999.08 998.64 998.16 997.72 997.24 996.76 996.28 995.84 995.44 995.08 994.76 994.40 994.04 993.72 993.48 993.24 993.12 992.96 992.80 992.64 992.48 992.20 991.88 991.56 991.36 991.28 991.24 991.28 991.32 991.36 991.40 991.40 991.32 991.16 991.08 991.16 991.36 991.48 991.68 991.92 992.08 992.20 992.44 992.64 992.80 992.92 993.12 993.48 993.80 993.84
1007.20 1006.76 1006.28 1005.80 1005.36 1004.88 1004.40 1003.92 1003.48 1003.04 1002.60 1002.16 1001.72 1001.28 1000.84 1000.48 1000.08 999.64 999.20 998.72 998.20 997.68 997.20 996.68 996.16 995.64 995.08 994.64 994.20 993.92 993.64 993.36 993.12 992.92 992.80 992.64 992.48 992.32 992.12 991.84 991.56 991.28 991.08 990.88 990.84 990.84 990.92 990.96 991.00 991.08 991.08 991.04 990.88 990.80 990.88 991.08 991.28 991.48 991.64 991.84 991.96 992.28 992.52 992.56 992.84 993.20 993.56 993.88 993.88
1007.04 1006.56 1006.08 1005.60 1005.12 1004.64 1004.12 1003.68 1003.24 1002.80 1002.36 1001.92 1001.48 1001.04 1000.60 1000.16 999.72 999.28 998.80 998.36 997.88 997.36 996.84 996.24 995.68 995.08 994.48 993.88 993.44 993.08 992.88 992.68 992.52 992.40 992.28 992.16 991.96 991.72 991.48 991.20 991.04 990.80 990.64 990.48 990.48 990.48 990.48 990.60 990.64 990.72 990.76 990.68 990.56 990.48 990.60 990.76 991.04 991.24 991.44 991.56 991.76 992.08 992.36 992.56 992.96 993.40 993.76 994.00 993.92
1006.88 1006.40 1005.92 1005.40 1004.92 1004.44 1003.96 1003.52 1003.08 1002.64 1002.20 1001.76 1001.28 1000.84 1000.36 999.92 999.48 999.04 998.60 998.12 997.64 997.08 996.52 995.96 995.40 994.80 994.12 993.44 992.84 992.48 992.28 992.12 992.00 991.88 991.76 991.64 991.40 991.12 990.92 990.80 990.60 990.36 990.16 990.08 990.04 990.08 990.12 990.20 990.24 990.36 990.36 990.36 990.24 990.24 990.36 990.48 990.72 991.00 991.20 991.24 991.60 991.80 992.08 992.56 993.12 993.64 993.92 993.96 994.00
1006.80 1006.28 1005.76 1005.24 1004.76 1004.28 1003.84 1003.40 1002.96 1002.48 1002.08 1001.64 1001.16 1000.68 1000.20 999.76 999.32 998.92 998.44 997.92 997.40 996.84 996.28 995.72 995.16 994.52 993.84 993.08 992.44 992.04 991.76 991.64 991.52 991.36 991.20 991.00 990.80 990.60 990.40 990.28 990.12 989.88 989.64 989.56 989.52 989.52 989.60 989.72 989.80 989.84 989.92 989.92 989.92 990.00 990.08 990.20 990.48 990.76 990.92 991.04 991.40 991.72 992.08 992.64 993.24 993.76 993.96 993.88 993.92
1006.68 1006.20 1005.72 1005.20 1004.64 1004.20 1003.76 1003.32 1002.88 1002.44 1001.96 1001.52 1001.08 1000.56 1000.08 999.64 999.20 998.80 998.36 997.80 997.20 996.64 996.08 995.48 994.92 994.36 993.68 993.00 992.32 991.76 991.44 991.24 991.08 990.88 990.64 990.40 990.16 990.00 989.80 989.64 989.40 989.16 988.96 988.88 988.88 988.92 989.00 989.16 989.28 989.36 989.48 989.52 989.68 989.80 989.88 989.92 990.24 990.48 990.72 991.00 991.32 991.68 992.20 992.76 993.32 993.68 993.84 993.76 993.88
1006.64 1006.12 1005.64 1005.12 1004.64 1004.16 1003.68 1003.24 1002.80 1002.36 1001.92 1001.44 1000.96 1000.48 1000.00 999.56 999.12 998.72 998.20 997.68 997.12 996.56 996.00 995.48 994.92 994.40 993.80 993.20 992.52 991.92 991.36 990.92 990.68 990.48 990.20 989.96 989.72 989.52 989.32 989.00 988.64 988.36 988.16 988.12 988.12 988.20 988.36 988.64 988.84 989.04 989.16 989.28 989.52 989.68 989.76 989.76 990.08 990.36 990.68 991.04 991.36 991.76 992.24 992.64 992.96 993.20 993.44 993.64 993.80
1006.56 1006.08 1005.56 1005.08 1004.56 1004.08 1003.64 1003.20 1002.80 1002.32 1001.84 1001.36 1000.88 1000.44 1000.00 999.56 999.12 998.64 998.16 997.64 997.08 996.52 996.00 995.56 995.08 994.56 994.08 993.48 992.92 992.36 991.76 991.24 990.72 990.24 989.84 989.52 989.44 989.36 989.20 988.84 988.44 988.12 987.88 987.68 987.48 987.52 987.76 988.20 988.48 988.72 988.92 989.16 989.44 989.56 989.60 989.72 990.04 990.40 990.80 991.16 991.56 991.92 992.20 992.40 992.64 992.92 993.28 993.64 993.88
1006.56 1006.04 1005.52 1005.04 1004.56 1004.08 1003.64 1003.16 1002.72 1002.28 1001.80 1001.36 1000.84 1000.40 1000.00 999.60 999.20 998.76 998.20 997.64 997.08 996.60 996.08 995.64 995.20 994.76 994.28 993.76 993.36 992.88 992.36 991.80 991.28 990.72 990.08 989.60 989.48 989.52 989.48 989.16 988.80 988.40 988.00 987.52 987.20 987.16 987.44 987.92 988.24 988.48 988.80 989.08 989.40 989.48 989.48 989.72 990.16 990.68 991.20 991.68 992.20 992.48 992.64 992.80 993.08 993.36 993.60 993.80 994.04
1006.60 1006.08 1005.52 1005.08 1004.56 1004.08 1003.64 1003.20 1002.72 1002.28 1001.84 1001.36 1000.92 1000.48 1000.08 999.68 999.28 998.84 998.32 997.76 997.20 996.68 996.24 995.80 995.36 994.92 994.52 994.08 993.72 993.36 992.92 992.48 991.92 991.36 990.80 990.36 990.08 989.84 989.64 989.36 988.96 988.52 988.04 987.56 987.20 987.20 987.44 987.84 988.20 988.52 988.92 989.28 989.48 989.56 989.64 989.92 990.40 991.04 991.64 992.24 992.76 993.16 993.44 993.64 993.96 994.20 994.24 994.24 994.20
1006.64 1006.12 1005.64 1005.12 1004.64 1004.16 1003.68 1003.24 1002.80 1002.36 1001.92 1001.48 1001.08 1000.68 1000.28 999.92 999.48 999.00 998.48 997.92 997.36 996.88 996.48 996.08 995.68 995.28 994.88 994.52 994.16 993.80 993.44 993.00 992.44 991.92 991.48 991.08 990.76 990.40 990.08 989.72 989.36 988.92 988.40 987.92 987.60 987.56 987.76 988.08 988.40 988.80 989.20 989.52 989.64 989.76 989.92 990.36 990.88 991.56 992.24 992.80 993.28 993.64 993.84 994.08 994.40 994.64 994.76 994.68 994.60
1006.72 1006.20 1005.76 1005.24 1004.76 1004.28 1003.80 1003.36 1002.92 1002.52 1002.12 1001.68 1001.28 1000.92 1000.52 1000.16 999.72 999.24 998.76 998.24 997.72 997.24 996.80 996.44 996.08 995.68 995.36 995.00 994.64 994.20 993.80 993.36 992.80 992.40 992.08 991.76 991.48 991.08 990.60 990.24 989.92 989.48 989.04 988.52 988.24 988.16 988.28 988.52 988.84 989.16 989.44 989.68 989.84 990.00 990.28 990.80 991.48 992.20 992.88 993.40 993.84 994.12 994.28 994.36 994.48 994.72 994.84 994.92 994.88
1006.88 1006.40 1005.92 1005.48 1004.92 1004.44 1003.92 1003.48 1003.08 1002.72 1002.36 1001.92 1001.48 1001.12 1000.80 1000.44 1000.08 999.64 999.16 998.64 998.16 997.68 997.24 996.88 996.48 996.16 995.76 995.36 994.96 994.52 994.08 993.68 993.32 993.04 992.80 992.48 992.08 991.60 991.20 990.92 990.56 990.12 989.64 989.20 988.92 988.80 988.92 989.16 989.48 989.72 989.92 990.08 990.28 990.48 990.80 991.36 992.08 992.76 993.28 993.72 994.08 994.36 994.52 994.60 994.72 994.84 995.00 995.08 995.04
1007.08 1006.64 1006.16 1005.68 1005.16 1004.64 1004.12 1003.68 1003.32 1002.92 1002.60 1002.20 1001.76 1001.40 1001.08 1000.80 1000.44 1000.00 999.48 999.04 998.56 998.08 997.64 997.28 996.92 996.52 996.12 995.72 995.32 994.88 994.48 994.12 993.88 993.64 993.36 993.04 992.60 992.16 991.84 991.64 991.28 990.84 990.40 990.08 989.80 989.72 989.80 990.04 990.24 990.40 990.52 990.68 990.92 991.08 991.36 991.92 992.48 993.08 993.56 993.92 994.24 994.56 994.84 994.96 995.08 995.16 995.28 995.40 995.40
1007.28 1006.80 1006.32 1005.84 1005.32 1004.80 1004.32 1003.88 1003.52 1003.20 1002.80 1002.48 1002.08 1001.76 1001.44 1001.08 1000.72 1000.32 999.84 999.36 998.92 998.48 998.04 997.64 997.32 996.92 996.52 996.08 995.68 995.32 994.92 994.64 994.36 994.12 993.88 993.48 993.16 992.88 992.64 992.48 992.12 991.80 991.52 991.32 991.08 990.92 990.84 990.92 991.08 991.16 991.20 991.32 991.48 991.64 991.88 992.24 992.76 993.32 993.80 994.20 994.52 994.80 995.08 995.32 995.44 995.64 995.76 995.92 995.96
Wind_Speed
12 12 11 10 10 10 10 10 10 10 10 11 11 12 11 11 12 11 11 10 10 10 10 11 11 12 14 16 18 18 19 20 22 23 24 24 23 22 21 21 20 19 19 18 16 15 13 13 13 11 9 8 8 8 9 9 10 12 14 17 16 16 15 14 12 13 15 18 16
14 14 13 12 11 11 10 11 10 11 11 11 11 11 12 11 12 12 12 11 11 10 11 11 12 13 15 18 18 18 19 20 22 23 24 24 24 23 22 20 20 20 19 19 18 15 12 12 11 11 10 9 9 9 9 9 10 13 16 20 17 14 13 13 12 14 16 19 19
14 13 13 13 13 12 12 11 11 12 13 13 12 12 12 12 12 12 12 12 12 12 12 11 12 14 16 19 18 18 18 19 21 22 22 23 23 23 22 20 20 20 19 18 18 16 14 13 11 10 9 9 10 10 10 10 11 13 16 20 16 13 11 10 11 12 14 16 19
14 14 13 14 15 15 14 12 13 15 15 13 13 13 13 12 12 12 13 14 14 14 13 12 12 13 15 16 18 19 19 19 21 21 22 22 23 23 23 21 21 20 20 19 19 18 17 16 12 10 9 10 11 10 10 9 10 12 14 15 13 12 11 9 10 11 12 14 17
16 14 13 13 16 16 15 15 16 16 15 13 13 13 13 12 12 13 13 13 13 13 14 15 14 14 14 16 19 20 21 21 21 20 20 21 22 22 22 22 21 20 20 19 19 19 19 18 13 10 9 10 9 9 10 10 11 11 12 12 12 11 10 9 9 10 11 13 15
16 16 16 15 16 17 16 16 18 18 16 14 15 15 15 13 13 13 14 14 15 16 17 17 16 16 17 18 20 21 21 21 20 19 20 21 20 21 22 23 22 21 19 19 20 20 20 18 13 11 9 9 10 11 12 13 12 11 12 13 13 11 9 9 9 9 11 13 16
17 18 18 18 18 18 17 17 18 18 17 16 17 18 18 17 16 17 18 17 16 16 16 15 15 16 17 18 19 19 19 19 19 20 20 20 20 20 21 21 21 21 20 20 20 20 18 17 13 11 10 9 10 12 13 13 12 12 13 14 14 12 10 11 9 10 12 16 20
18 18 19 19 19 19 19 19 19 18 17 16 17 19 21 20 20 21 20 19 17 16 15 14 16 18 19 19 19 19 19 20 20 20 20 20 21 21 21 20 21 21 21 21 20 20 19 16 13 12 11 10 10 11 13 15 15 15 15 16 15 14 12 11 11 11 14 19 24
17 18 19 19 19 19 20 20 20 19 19 18 20 21 22 21 22 22 21 19 17 16 16 15 17 19 20 21 21 20 19 19 19 20 20 19 20 21 21 20 20 21 21 20 20 21 20 17 14 13 12 11 11 12 13 16 17 17 17 17 17 15 14 12 13 14 16 19 24
19 19 19 19 19 20 20 20 20 20 21 21 22 22 22 21 21 20 19 17 16 17 17 17 18 19 20 21 21 20 19 19 19 19 20 19 20 21 21 20 20 21 20 19 19 19 19 17 16 15 15 13 14 15 16 16 17 18 18 16 17 17 17 16 16 17 17 19 24
20 20 19 18 19 20 20 20 19 19 19 20 21 21 21 20 20 19 18 17 17 19 20 19 19 20 20 20 20 19 19 18 17 18 19 20 20 21 21 21 21 21 21 19 18 17 16 15 16 18 18 17 16 16 16 17 17 18 18 17 19 20 20 19 19 18 18 20 25
21 20 20 19 20 20 20 19 18 18 18 19 20 20 19 19 19 19 19 19 20 21 20 20 20 20 20 19 19 19 19 19 19 19 20 20 21 21 22 22 22 21 21 21 19 17 15 16 18 19 20 20 17 15 16 17 18 18 19 19 22 22 22 21 20 19 18 20 25
21 20 20 20 20 20 20 19 17 17 17 19 19 18 17 17 18 19 19 20 20 19 18 18 19 20 20 19 19 18 18 19 20 20 20 20 21 21 22 22 22 22 21 20 19 17 17 18 20 21 22 21 18 16 17 18 18 18 19 20 22 22 22 21 20 20 20 22 25
21 20 20 20 20 20 19 18 17 16 16 18 18 18 17 17 17 17 17 18 19 18 17 17 17 17 17 19 19 19 19 19 20 20 21 21 21 21 22 21 21 21 20 18 18 18 19 19 20 22 23 23 21 20 19 20 19 18 19 20 22 23 22 20 19 19 21 24 27
21 21 20 20 20 19 18 18 16 15 16 18 17 17 16 15 15 15 16 17 18 17 16 16 15 16 17 19 20 20 20 20 21 21 22 22 22 22 22 21 21 21 20 18 18 19 20 21 21 22 22 23 23 22 21 21 20 19 19 20 21 22 22 21 19 19 20 24 27
21 21 20 20 20 19 18 17 15 14 15 16 17 17 16 16 15 15 15 17 16 16 16 17 17 16 17 18 19 20 21 21 21 22 22 22 22 22 21 21 21 20 20 20 20 20 21 22 22 22 23 23 23 23 22 21 20 20 20 20 21 22 22 21 19 19 21 25 27
21 21 20 20 20 20 19 18 16 15 16 17 18 18 17 16 15 15 15 16 16 16 17 19 18 17 17 18 18 18 19 20 20 21 21 21 21 21 21 21 21 21 21 21 21 22 22 23 23 23 24 24 23 23 22 22 20 20 20 21 21 22 21 20 18 18 21 26 28
20 20 20 20 20 20 20 20 18 18 18 19 19 18 18 17 17 17 17 17 17 18 20 21 20 19 19 20 19 18 17 18 19 20 20 20 21 21 21 21 21 21 21 21 22 23 24 25 25 25 24 23 22 22 21 21 20 19 20 20 21 21 20 18 17 17 19 25 27
20 20 20 20 20 20 20 20 20 20 20 20 19 19 19 19 20 20 19 18 19 20 21 22 21 21 21 22 21 20 18 19 20 21 21 21 21 21 21 21 21 21 21 22 22 24 25 26 26 25 24 22 21 20 20 20 19 18 18 19 21 21 20 18 17 17 18 23 25
20 20 20 20 20 20 20 21 21 21 20 20 20 20 20 21 21 21 21 21 20 21 22 23 22 22 22 23 23 22 20 19 20 22 22 21 21 21 21 21 21 22 22 23 24 25 26 25 24 23 23 22 21 20 19 19 18 18 17 17 19 20 20 17 16 17 19 23 23
20 20 20 20 20 20 20 20 21 21 21 21 21 21 21 21 21 21 22 22 22 22 22 23 23 23 23 23 23 23 22 19 20 21 22 21 22 22 22 21 21 22 22 23 25 26 25 22 21 21 21 20 20 19 19 18 17 17 16 15 16 18 18 16 16 18 20 23 23
20 20 20 20 20 20 20 20 21 21 21 21 21 21 21 21 21 21 21 22 22 22 23 23 24 24 24 24 23 23 22 19 20 21 21 20 21 21 21 20 21 23 24 26 26 25 22 19 18 18 19 19 19 19 18 17 16 16 15 15 15 16 16 15 17 18 21 23 21
20 20 20 19 20 20 20 20 20 21 21 21 21 21 20 20 20 21 21 21 21 21 22 22 22 23 24 24 23 23 23 22 22 22 21 21 21 21 21 20 22 24 25 25 23 21 18 16 16 17 18 18 18 18 18 17 16 15 15 16 16 15 15 15 17 19 21 22 20
20 20 19 18 19 20 20 20 20 20 20 20 20 20 20 20 20 20 21 21 21 22 21 20 20 21 23 23 24 24 24 24 24 23 23 22 21 21 21 21 22 23 23 21 19 17 15 13 13 13 15 17 16 16 17 17 16 16 16 16 16 15 15 16 19 23 26 26 20
21 20 20 19 20 20 20 20 20 20 20 20 20 20 20 20 20 20 20 21 21 21 22 22 22 22 22 22 23 23 24 24 24 24 23 22 20 20 20 19 20 20 19 17 17 17 16 14 12 11 12 14 14 15 15 16 16 16 16 17 16 15 14 17 22 27 30 30 22
20 20 20 20 20 20 20 20 20 20 20 20 20 20 20 20 20 20 20 21 21 21 22 22 22 22 21 21 22 22 22 22 22 22 21 20 20 19 19 18 17 16 16 15 16 17 18 17 15 14 13 14 13 13 14 14 16 17 17 17 16 15 14 15 19 22 24 25 18
20 20 20 21 21 21 21 20 20 20 20 20 20 20 20 20 19 19 20 21 21 21 21 21 21 20 20 20 22 23 23 21 20 20 20 19 19 19 19 17 16 15 14 15 17 18 18 19 19 18 17 16 15 14 13 13 15 16 17 17 16 16 15 15 15 15 16 18 14
20 20 21 21 21 21 20 20 20 20 20 20 20 20 20 20 20 20 20 20 20 20 19 18 18 17 16 16 19 21 22 22 20 18 18 18 19 19 19 18 17 16 16 17 18 18 18 19 20 21 21 18 16 14 13 13 14 15 15 15 14 15 16 13 12 13 14 16 12
21 21 21 21 21 21 20 20 20 20 20 20 20 20 20 20 20 20 20 20 20 19 17 15 14 13 13 14 16 18 20 20 18 17 16 17 19 20 20 20 19 18 19 20 20 20 20 20 21 23 23 20 15 12 11 12 13 13 14 13 14 14 14 12 12 13 15 16 12
21 21 21 21 21 21 20 20 20 20 20 19 19 20 20 20 20 20 19 20 19 18 17 15 14 15 16 17 15 15 15 16 16 16 16 18 20 20 20 19 19 19 19 21 22 22 22 22 23 23 23 22 16 13 11 12 13 13 13 12 14 15 14 14 15 17 17 14 12
21 21 21 21 21 20 20 20 20 20 20 19 20 20 20 19 19 19 19 19 18 18 17 16 17 18 19 18 14 13 13 14 14 15 17 19 20 20 20 20 21 20 21 22 23 23 22 22 23 24 24 22 17 14 13 13 14 13 13 13 15 16 16 16 19 21 20 14 12
21 21 21 21 21 20 20 20 20 20 20 20 20 20 19 19 19 18 18 18 18 18 17 16 17 17 18 18 15 12 12 14 15 16 17 18 19 20 20 21 22 22 22 23 23 23 22 22 22 23 24 22 17 15 15 15 15 15 15 16 16 17 17 16 19 21 19 14 12
21 21 21 21 21 20 20 20 20 20 20 20 19 19 19 19 18 18 18 17 16 16 16 16 16 16 17 17 17 15 12 11 14 16 17 18 19 18 17 16 16 17 18 21 23 22 21 20 21 23 24 23 17 17 18 19 19 18 17 17 17 17 17 17 16 16 15 13 11
21 21 21 21 20 20 20 20 20 20 20 19 19 19 19 18 19 19 18 17 16 15 14 14 15 15 15 15 16 16 15 13 12 11 11 12 11 8 7 6 5 6 7 14 20 20 19 18 19 22 23 22 17 18 21 23 21 19 16 13 14 15 15 15 15 15 13 12 10
22 22 21 21 20 20 20 20 20 20 20 19 19 19 19 18 19 19 18 17 16 14 14 14 14 14 14 14 14 15 16 17 18 17 15 11 9 10 11 11 10 11 9 9 15 17 16 15 17 19 20 19 16 17 20 22 17 15 13 12 10 9 9 9 11 13 13 12 11
22 22 22 21 21 20 20 20 20 20 20 19 19 19 19 18 18 18 18 17 16 15 14 14 14 14 14 14 14 15 16 17 17 18 18 18 17 15 14 14 13 14 11 3 8 12 12 13 13 14 15 14 12 13 15 15 14 16 17 16 14 13 11 10 8 7 7 6 8
21 21 22 21 21 21 20 20 20 20 20 19 19 18 18 18 18 17 17 16 15 15 15 15 15 15 15 15 14 15 16 16 17 17 18 18 18 17 17 17 18 17 16 12 7 9 12 12 12 11 10 9 10 11 13 13 14 15 16 15 14 13 11 11 10 9 7 6 4
21 21 21 21 21 21 20 20 20 20 19 19 18 18 17 17 16 16 16 16 15 15 15 14 15 15 15 15 14 15 16 18 18 19 19 19 19 19 19 20 20 19 19 20 18 17 17 16 15 12 11 10 11 12 13 14 14 14 14 13 11 11 10 8 9 9 10 10 10
20 20 21 21 21 21 20 20 19 19 19 18 18 17 17 16 15 15 15 15 14 14 14 14 15 15 15 14 13 15 17 19 19 19 19 19 20 21 22 21 21 21 23 25 25 24 23 22 19 16 12 11 11 12 13 14 14 14 13 11 11 10 10 9 9 9 10 12 15
19 19 20 21 20 20 20 20 19 19 18 17 17 17 16 15 14 14 14 14 14 14 13 13 15 15 14 13 14 15 18 19 20 20 20 20 22 24 24 22 23 24 26 28 28 27 26 24 21 17 14 11 11 11 12 13 14 13 12 11 10 10 10 10 9 10 10 12 14
18 18 20 20 20 20 19 19 19 18 18 17 17 16 14 13 13 14 14 14 14 13 12 12 14 15 15 13 13 15 17 19 20 20 21 22 23 24 24 23 24 25 26 28 29 28 27 25 23 19 15 11 10 10 10 12 13 13 13 11 10 10 9 10 10 11 11 12 12
Wind_Direction
300 298 296 294 293 291 290 288 286 285 285 284 284 283 282 281 281 280 278 277 275 275 275 275 276 278 279 281 282 284 285 288 290 291 292 292 291 291 292 292 293 295 296 297 296 292 283 270 262 256 252 250 244 239 235 233 234 238 240 240 238 235 229 221 217 218 224 232 237
301 299 297 296 293 291 289 287 285 284 284 283 283 283 283 282 282 281 280 277 276 275 276 275 275 277 279 281 282 282 283 283 285 287 288 288 287 287 287 287 289 291 293 296 297 297 293 282 269 259 252 250 249 245 238 233 232 236 239 240 237 232 226 220 214 215 222 231 235
302 301 298 296 293 291 290 288 287 287 287 287 287 287 286 285 284 283 282 281 280 279 278 277 277 278 280 281 281 280 280 279 280 281 282 283 284 283 283 284 286 287 289 291 292 293 294 293 280 266 254 249 249 247 243 236 232 234 238 240 235 229 223 219 211 212 219 229 232
301 299 297 295 294 293 292 292 292 291 290 289 289 287 285 284 284 283 283 282 281 279 277 277 277 278 277 277 276 275 274 273 273 274 275 276 279 280 282 283 283 284 285 285 286 287 288 291 286 274 259 251 249 248 245 237 231 231 235 239 233 226 218 212 206 206 213 225 229
300 299 299 297 297 296 295 293 292 291 290 288 286 284 282 280 279 279 278 278 276 275 274 274 274 274 274 274 274 274 273 272 272 272 273 274 277 279 281 282 281 281 282 282 282 282 283 285 284 277 265 255 247 244 242 240 233 231 232 237 233 226 217 208 202 201 208 221 226
301 300 299 298 297 296 293 291 289 288 286 284 281 279 277 276 275 274 274 274 273 274 273 273 272 272 273 273 273 273 273 272 271 271 271 272 274 275 276 277 278 278 278 278 278 278 278 278 278 275 269 261 253 248 244 241 237 233 232 235 234 230 220 210 203 200 205 217 225
301 300 299 296 295 292 290 288 286 284 282 279 277 276 275 274 273 272 273 273 273 273 272 271 269 269 269 270 270 270 269 269 268 268 268 269 270 271 272 273 275 275 275 274 275 275 274 273 272 271 268 263 259 252 246 240 236 233 233 234 233 230 222 213 206 202 206 217 225
299 298 296 294 292 289 287 286 284 283 281 278 277 277 277 276 275 275 274 274 273 272 271 270 268 267 267 267 267 267 267 268 268 268 267 268 269 270 271 272 273 273 272 272 271 271 270 269 267 265 263 260 257 253 247 242 237 234 232 232 231 228 222 215 209 205 208 217 225
297 295 294 292 290 288 287 286 284 283 281 280 279 279 279 279 278 277 276 275 273 272 271 268 267 267 266 265 265 265 265 265 265 265 265 265 265 266 267 267 267 267 267 266 266 266 265 264 262 260 258 256 253 250 247 242 238 235 233 232 229 224 219 215 209 206 208 216 224
296 295 294 292 291 289 288 287 285 284 282 281 281 280 279 279 277 276 275 274 273 271 269 267 267 266 265 264 263 262 262 261 261 262 261 261 260 261 261 261 260 260 260 260 260 261 260 259 257 255 253 252 251 249 246 241 238 235 234 234 230 224 219 215 210 207 208 216 224
296 295 294 293 292 291 290 289 287 285 283 282 281 280 279 278 276 275 274 273 271 269 267 266 265 264 263 262 261 260 259 259 258 258 258 259 258 257 257 257 256 256 256 256 257 257 257 256 254 252 250 249 248 247 245 240 236 234 234 236 233 228 222 217 211 207 208 217 226
296 295 294 294 293 293 291 289 287 285 284 282 281 280 279 277 275 274 273 271 269 268 267 265 263 262 261 260 259 258 258 257 257 258 258 258 257 257 256 256 255 254 254 254 254 253 253 253 252 252 250 248 246 244 242 239 235 233 233 236 235 231 226 219 213 209 209 217 227
297 297 296 295 294 293 291 289 287 285 283 282 281 280 278 276 275 274 272 270 268 267 266 264 261 260 259 258 257 256 255 255 256 256 256 256 256 255 254 254 253 253 252 252 251 249 248 248 249 249 249 248 245 243 241 240 236 232 230 233 235 233 229 223 216 210 208 216 226
298 298 297 296 295 293 291 289 286 284 283 282 281 279 278 276 274 273 271 269 268 267 266 265 261 259 257 256 255 254 254 254 254 255 255 255 254 253 252 252 251 251 252 253 253 252 251 249 246 246 246 247 245 243 241 240 237 233 229 229 232 233 231 226 219 212 210 215 226
299 298 297 296 294 292 290 288 286 284 282 281 281 280 279 277 275 273 271 270 270 269 268 267 265 263 260 258 256 255 254 253 253 254 254 254 253 252 251 250 250 251 252 254 256 257 257 256 252 248 245 244 243 242 240 239 237 234 229 226 228 229 229 227 221 215 213 217 226
300 298 297 296 294 292 290 288 286 284 283 283 283 283 282 281 279 276 274 273 272 272 270 269 269 268 266 262 259 257 255 253 253 253 253 253 252 252 251 251 252 252 253 254 255 256 257 258 256 252 246 242 240 239 239 238 237 234 229 225 224 223 223 222 219 215 215 219 226
299 298 297 295 294 292 291 290 288 287 286 286 286 285 284 283 281 278 276 274 274 273 271 270 269 269 268 266 262 259 256 254 252 251 251 251 251 252 252 252 253 253 254 254 254 255 255 256 255 251 245 239 237 236 236 236 235 233 229 226 223 221 219 217 213 211 213 219 224
299 298 297 296 295 294 293 292 291 290 289 288 287 286 284 283 281 279 277 274 273 272 272 271 269 267 266 266 265 262 259 256 254 252 250 250 250 251 252 253 253 254 254 254 255 255 256 256 253 248 242 235 233 232 234 235 235 233 230 227 224 221 218 213 207 207 211 218 222
299 299 298 298 297 296 295 294 293 292 290 289 287 285 284 282 281 280 278 275 273 272 272 271 269 267 265 264 263 262 260 258 257 254 252 251 250 250 251 252 253 254 254 254 255 255 256 255 252 245 238 231 229 229 230 233 234 233 231 228 225 222 218 210 204 205 211 219 221
301 301 300 300 299 298 297 295 294 293 291 289 287 285 283 281 280 279 278 277 275 273 272 270 269 267 265 263 262 260 259 257 257 255 254 251 250 249 250 251 253 254 254 254 254 254 253 253 249 242 235 228 225 226 227 230 232 232 231 229 226 223 218 209 202 204 211 219 219
303 303 302 301 300 299 297 296 294 293 291 289 287 285 283 281 279 278 278 277 276 274 272 270 268 267 265 264 262 260 259 257 256 255 254 251 249 249 249 250 251 253 253 253 252 251 250 251 247 240 232 226 223 223 225 227 228 228 227 226 225 223 218 209 201 204 209 215 215
305 305 304 303 301 299 298 296 294 292 290 288 287 285 283 281 280 278 278 277 276 273 271 269 268 266 265 263 262 260 259 257 256 254 252 250 248 247 246 247 248 249 250 249 248 248 249 251 247 239 232 225 222 221 221 223 223 221 220 220 224 224 220 211 204 204 207 210 210
307 306 305 303 301 300 298 295 293 291 289 288 287 286 284 283 281 280 278 277 275 272 270 268 267 265 264 262 261 260 259 258 255 252 249 246 245 244 243 244 245 246 246 246 245 246 248 251 247 239 232 227 221 219 218 218 216 214 213 214 220 223 222 215 208 205 205 205 205
308 307 306 304 302 300 298 295 293 292 290 290 289 288 287 285 284 282 280 277 275 273 270 268 266 265 264 263 261 260 259 257 255 252 248 244 242 241 241 242 243 244 245 244 243 243 245 249 246 240 233 228 221 216 213 211 209 207 206 207 213 219 222 218 211 207 204 201 199
309 308 306 304 302 300 298 296 295 294 293 292 292 291 289 288 286 284 282 279 277 274 272 269 267 265 263 262 259 258 256 255 253 251 249 245 243 241 241 241 242 243 243 242 241 241 241 242 241 239 235 229 221 214 208 206 203 202 201 202 205 211 215 214 209 203 199 195 194
310 308 306 304 303 301 300 298 297 297 296 296 295 293 292 290 288 287 284 282 279 276 273 271 267 264 261 258 256 254 253 252 250 249 247 246 244 243 242 241 241 241 241 240 238 237 237 237 234 234 233 231 220 210 203 200 198 196 196 196 198 201 204 202 196 189 185 187 189
310 308 307 305 304 303 302 301 300 300 300 299 298 296 295 294 292 290 287 285 282 279 276 272 268 263 259 255 252 250 249 248 247 247 246 246 245 245 244 244 244 244 243 240 237 236 236 235 231 230 230 231 220 208 196 191 191 190 190 191 191 194 196 191 182 174 174 182 184
311 309 308 307 306 305 305 304 304 304 303 302 301 300 298 297 295 293 291 289 287 284 281 277 272 266 259 252 247 245 243 243 243 243 243 244 245 245 246 247 247 248 247 245 242 240 237 235 230 227 224 225 217 205 191 183 183 184 186 185 185 186 186 178 170 170 176 185 182
312 311 310 309 309 308 308 308 308 307 306 305 304 303 302 300 299 298 296 295 293 291 287 284 281 277 270 260 248 242 239 238 238 239 239 240 242 243 245 246 248 249 249 248 246 243 239 234 229 223 217 213 209 200 187 178 178 180 181 181 181 178 172 162 165 174 182 187 181
314 313 312 312 311 311 311 311 311 310 309 307 307 306 305 304 304 303 303 301 298 295 292 289 288 289 287 280 262 246 236 234 234 235 236 237 239 241 243 244 246 247 247 245 243 240 237 232 224 216 209 202 201 196 188 176 175 175 175 174 178 171 163 159 170 179 185 186 177
316 315 314 314 314 314 314 314 313 313 312 310 310 309 309 309 309 309 308 305 302 299 297 296 297 300 301 298 281 258 240 234 234 235 236 236 238 239 240 242 243 244 244 242 239 236 231 225 217 208 200 192 193 193 187 174 171 169 167 165 168 164 161 165 175 182 184 178 167
318 317 316 316 316 317 317 317 316 315 314 313 312 313 313 314 314 313 311 308 306 306 308 310 314 316 317 316 306 285 257 241 240 239 239 239 240 241 241 241 240 239 238 236 233 229 223 215 206 199 192 184 187 190 187 173 168 165 161 159 159 159 162 168 175 178 175 164 155
320 320 319 319 319 319 320 320 319 318 317 317 316 317 319 319 319 318 316 314 313 316 320 325 327 327 326 326 325 319 303 275 257 249 246 245 247 249 250 247 242 239 235 228 225 220 213 200 193 187 183 178 184 188 185 172 168 164 160 155 155 157 160 164 165 163 159 150 145
323 322 322 322 322 322 322 322 322 321 321 320 321 322 324 325 325 324 323 321 321 324 329 333 333 332 331 331 335 338 339 336 323 303 282 262 262 275 301 320 317 306 272 226 217 209 198 181 177 175 175 173 180 182 177 167 163 159 153 145 152 156 158 157 158 157 155 150 146
325 325 325 325 325 325 325 325 324 324 324 325 326 327 329 330 330 329 327 325 327 331 336 339 339 338 338 339 342 346 349 352 353 354 356 3 24 34 31 19 4 345 321 236 210 196 179 161 162 164 167 169 175 171 162 154 141 127 114 100 109 119 128 132 152 161 164 161 157
327 327 327 327 328 328 328 328 327 328 328 329 330 332 333 334 333 332 330 328 333 338 343 345 345 346 347 348 351 354 357 358 2 8 14 19 22 24 24 20 10 359 349 305 190 172 154 140 143 147 153 160 159 149 138 126 104 90 83 79 78 78 78 78 97 121 142 150 156
328 329 329 330 330 330 330 330 330 331 332 333 333 335 336 337 336 335 334 333 339 344 348 349 351 352 354 355 358 2 5 6 12 16 19 19 19 20 22 21 15 10 10 21 80 111 112 107 107 111 119 128 123 115 106 98 90 85 82 80 77 74 72 74 75 73 68 62 75
330 331 331 332 332 332 332 332 333 334 335 335 335 337 338 339 338 338 338 339 343 347 350 352 355 356 356 357 1 6 11 16 21 24 24 22 20 21 23 23 17 16 18 28 48 63 72 73 73 76 84 95 98 97 94 92 91 89 88 86 82 77 73 73 72 66 58 49 42
331 332 334 334 334 334 334 334 335 336 336 336 336 338 340 342 341 342 342 343 346 349 351 354 356 357 357 358 4 12 17 22 26 28 28 25 23 23 24 22 18 18 21 28 39 48 53 54 55 59 68 81 86 90 92 92 93 93 93 92 87 78 71 66 65 60 53 45 40
333 334 336 337 336 336 336 336 337 338 338 337 338 339 341 343 343 345 346 347 349 351 353 356 358 358 359 2 10 17 22 26 28 29 29 28 27 26 25 23 20 20 22 26 35 42 47 49 49 52 59 72 77 84 89 93 93 92 90 88 84 78 70 62 59 54 48 42 38
336 338 340 340 339 338 337 338 339 339 339 339 339 340 341 343 346 349 351 352 354 355 356 357 359 1 4 7 14 21 26 29 30 30 30 32 31 29 27 24 22 23 24 26 32 38 45 49 49 50 54 67 74 81 86 90 89 87 84 80 79 76 71 64 57 52 47 42 38